Main page
METAR-TAF:

METAR-TAF

Airports :

Quentin Aanenson Field

Luverne, Minnesota, United States

latitude: 43-37-16N, longitude: 096-12-58W, elevation: 1430 ft

Current weather observation

The report was made 27 minutes ago, at 16:15 UTC
Wind 14 mph from the North with gusts up to 18 mph
Temperature 73°F
Humidity 31%
Pressure 30.04 in. Hg
Visibility: 10 miles
Clear sky

METAR: KLYV 281615Z AUTO 36012G16KT 10SM CLR 23/05 A3004 RMK AO2

Time: 11:42 (16:42 UTC)


TAF: missing

Weather observations and forecasts of more than 4000 airports (METAR and TAF reports).

The available stations are represented by yellow and red dots on the map.

Hover mouse over dot to see the name of the station.

Then click to see weather observations and forecasts.

To change the map : click on the green buttons with a black cross to zoom in, on the green button with a dash to zoom out, or on the green arrows for adjacent maps.


METAR-TAF: